TimeEDT,TemperatureF,Dew PointF,Humidity,Sea Level PressureIn,VisibilityMPH,Wind Direction,Wind SpeedMPH,Gust SpeedMPH,PrecipitationIn,Events,Conditions,WindDirDegrees,DateUTC
12:56 AM,61.0,46.9,60,29.85,10.0,South,11.5,-,0.00,,Mostly Cloudy,180,2013-04-24 04:56:00
1:56 AM,61.9,45.9,56,29.82,10.0,South,12.7,23.0,N/A,,Mostly Cloudy,190,2013-04-24 05:56:00
2:56 AM,61.0,47.8,62,29.81,10.0,SSW,12.7,-,0.00,,Overcast,210,2013-04-24 06:56:00
3:56 AM,61.9,47.8,60,29.78,10.0,SSW,19.6,27.6,0.00,,Mostly Cloudy,210,2013-04-24 07:56:00
4:56 AM,61.9,48.9,62,29.79,10.0,SSW,13.8,25.3,N/A,,Overcast,210,2013-04-24 08:56:00
5:56 AM,61.9,48.9,62,29.78,10.0,SW,15.0,-,N/A,,Mostly Cloudy,220,2013-04-24 09:56:00
6:41 AM,57.2,53.6,88,29.81,7.0,West,11.5,-,0.00,Rain,Light Rain,280,2013-04-24 10:41:00
6:56 AM,56.8,52.9,87,29.81,6.0,West,10.4,-,0.00,Rain,Light Rain,270,2013-04-24 10:56:00
7:07 AM,55.4,53.6,94,29.81,6.0,West,11.5,-,0.00,Rain,Light Rain,270,2013-04-24 11:07:00
7:24 AM,55.4,53.6,94,29.82,5.0,West,6.9,-,0.00,Rain,Light Rain,260,2013-04-24 11:24:00
7:38 AM,55.4,53.6,94,29.80,2.0,SW,5.8,-,0.00,Rain,Light Rain,230,2013-04-24 11:38:00
7:42 AM,55.4,53.6,94,29.80,3.0,SW,5.8,-,0.00,Rain,Light Rain,220,2013-04-24 11:42:00
7:56 AM,54.9,54.0,97,29.79,8.0,West,6.9,-,0.00,,Overcast,260,2013-04-24 11:56:00
8:08 AM,55.4,53.6,94,29.83,1.8,West,17.3,23.0,0.02,Rain,Rain,270,2013-04-24 12:08:00
8:11 AM,53.6,51.8,94,29.81,1.0,NW,17.3,28.8,0.04,Rain,Light Rain,310,2013-04-24 12:11:00
8:21 AM,48.2,46.4,93,29.82,1.5,NW,10.4,-,0.06,Rain,Light Rain,310,2013-04-24 12:21:00
8:23 AM,48.2,46.4,93,29.82,3.0,WNW,10.4,-,0.06,Rain,Light Rain,300,2013-04-24 12:23:00
8:41 AM,48.2,46.4,93,29.84,2.5,West,8.1,-,0.10,Rain,Rain,260,2013-04-24 12:41:00
8:47 AM,48.2,46.4,93,29.83,1.2,West,9.2,-,0.13,Rain,Heavy Rain,280,2013-04-24 12:47:00
8:56 AM,48.9,46.9,93,29.83,1.5,WNW,9.2,-,0.17,Rain,Heavy Rain,290,2013-04-24 12:56:00
9:01 AM,48.2,46.4,93,29.83,2.0,WNW,9.2,-,0.01,Rain,Rain,300,2013-04-24 13:01:00
9:09 AM,48.2,46.4,93,29.83,1.8,WNW,9.2,-,0.03,Rain,Rain,290,2013-04-24 13:09:00
9:24 AM,46.4,46.4,100,29.81,2.0,NW,8.1,-,0.06,Rain,Light Rain,320,2013-04-24 13:24:00
9:56 AM,46.9,45.0,93,29.82,1.5,WNW,10.4,-,0.14,Rain,Heavy Rain,290,2013-04-24 13:56:00
10:18 AM,44.6,44.6,100,29.82,1.8,NW,9.2,-,0.09,Rain,Heavy Rain,320,2013-04-24 14:18:00
10:28 AM,44.6,44.6,100,29.83,2.0,NW,10.4,-,0.12,Rain,Rain,310,2013-04-24 14:28:00
10:41 AM,44.6,42.8,93,29.85,1.5,WNW,12.7,-,0.18,Rain,Heavy Rain,290,2013-04-24 14:41:00
10:47 AM,44.6,42.8,93,29.86,1.2,WNW,10.4,-,0.22,Rain,Heavy Rain,290,2013-04-24 14:47:00
10:56 AM,43.9,41.9,93,29.86,1.2,WNW,10.4,-,0.26,Rain,Heavy Rain,300,2013-04-24 14:56:00
11:05 AM,44.6,42.8,93,29.84,1.8,WNW,4.6,-,0.03,Rain,Rain,290,2013-04-24 15:05:00
11:14 AM,44.6,42.8,93,29.83,2.5,WNW,8.1,-,0.05,Rain,Rain,300,2013-04-24 15:14:00
11:18 AM,44.6,42.8,93,29.82,3.0,WNW,9.2,-,0.06,Rain,Heavy Rain,300,2013-04-24 15:18:00
11:56 AM,43.9,41.9,93,29.81,3.0,WNW,5.8,-,0.09,Rain,Light Rain,290,2013-04-24 15:56:00
12:56 PM,41.9,39.9,93,29.90,1.5,WNW,12.7,-,0.03,Rain,Light Rain,290,2013-04-24 16:56:00
1:13 PM,41.0,39.2,93,29.91,1.2,WNW,17.3,-,0.00,Rain,Light Rain,290,2013-04-24 17:13:00
1:17 PM,42.8,39.2,87,29.91,1.0,WNW,17.3,-,0.00,Rain,Light Rain,290,2013-04-24 17:17:00
1:39 PM,41.0,39.2,93,29.92,1.5,WNW,16.1,-,0.01,Rain,Light Rain,300,2013-04-24 17:39:00
1:49 PM,41.0,39.2,93,29.93,1.0,WNW,19.6,23.0,0.01,Rain,Light Rain,300,2013-04-24 17:49:00
1:56 PM,39.9,37.9,93,29.93,1.5,WNW,16.1,24.2,0.02,Rain,Light Rain,300,2013-04-24 17:56:00
2:21 PM,39.2,37.4,93,29.94,2.0,WNW,18.4,-,0.00,Rain,Light Rain,290,2013-04-24 18:21:00
2:31 PM,39.2,37.4,93,29.94,4.0,WNW,17.3,27.6,0.00,Rain,Light Rain,300,2013-04-24 18:31:00
2:56 PM,38.8,34.9,86,29.96,7.0,WNW,18.4,27.6,0.00,,Overcast,290,2013-04-24 18:56:00
3:29 PM,39.2,33.8,81,29.98,8.0,WNW,17.3,23.0,0.00,,Overcast,300,2013-04-24 19:29:00
3:38 PM,39.2,35.6,87,29.99,7.0,WNW,16.1,20.7,0.00,Rain,Light Rain,290,2013-04-24 19:38:00
3:56 PM,38.8,34.0,83,30.00,7.0,WNW,18.4,-,0.00,,Overcast,300,2013-04-24 19:56:00
4:05 PM,39.2,33.8,81,30.00,7.0,WNW,16.1,-,N/A,,Overcast,300,2013-04-24 20:05:00
4:14 PM,39.2,33.8,81,30.01,7.0,WNW,18.4,25.3,N/A,,Overcast,300,2013-04-24 20:14:00
4:43 PM,39.2,33.8,81,30.03,8.0,WNW,20.7,28.8,N/A,,Overcast,300,2013-04-24 20:43:00
4:56 PM,38.8,32.9,79,30.05,7.0,WNW,20.7,31.1,N/A,,Overcast,290,2013-04-24 20:56:00
5:56 PM,38.8,32.0,76,30.09,9.0,WNW,12.7,-,N/A,,Overcast,300,2013-04-24 21:56:00
6:35 PM,41.0,33.8,76,30.11,9.0,WNW,12.7,-,N/A,,Mostly Cloudy,300,2013-04-24 22:35:00
6:56 PM,41.0,32.0,70,30.12,10.0,WNW,11.5,-,N/A,,Mostly Cloudy,300,2013-04-24 22:56:00
7:56 PM,41.0,31.1,68,30.16,9.0,WNW,15.0,-,N/A,,Partly Cloudy,290,2013-04-24 23:56:00
8:56 PM,37.9,32.0,79,30.18,10.0,West,6.9,-,N/A,,Clear,260,2013-04-25 00:56:00
9:56 PM,36.9,32.0,83,30.22,10.0,West,9.2,-,N/A,,Scattered Clouds,260,2013-04-25 01:56:00
10:56 PM,36.0,32.0,86,30.24,10.0,West,5.8,-,N/A,,Clear,260,2013-04-25 02:56:00
11:56 PM,34.9,32.0,89,30.24,10.0,SW,5.8,-,N/A,,Clear,220,2013-04-25 03:56:00